,,Stat6,,Stat2,,Stat8,,Stat9,,Stat10,,Wind1,,Wind1,
time,status,PA1M_AVG,status,PR1M_SUM,status,RH1M_AVG,status,SR1M_AVG,status,TA1M_AVG,status,W1dAve1m,status,W1sAve1m,
2004-08-17, 00:00:00,VALID,919.166,VALID,0,VALID,100,VALID,0.0169808,VALID,19.205,VALID,238,VALID,0.338068,
2004-08-17, 00:01:00,VALID,919.165,VALID,0,VALID,100,VALID,0.0169808,VALID,19.2139,VALID,238,VALID,0.316051,
2004-08-17, 00:02:00,VALID,919.156,VALID,0,VALID,100,VALID,0.0339617,VALID,19.2169,VALID,238,VALID,0.20476,
2004-08-17, 00:03:00,VALID,919.154,VALID,0,VALID,100,VALID,0.0339617,VALID,19.2174,VALID,238,VALID,0.0456032,
2004-08-17, 00:04:00,VALID,919.137,VALID,0,VALID,100,VALID,0,VALID,19.2107,VALID,238,VALID,0.00334821,
2004-08-17, 00:05:00,VALID,919.136,VALID,0,VALID,100,VALID,0.0169808,VALID,19.1916,VALID,238,VALID,0.0101744,
2004-08-17, 00:06:00,VALID,919.137,VALID,0,VALID,100,VALID,0.0339617,VALID,19.1749,VALID,238,VALID,0.171875,
2004-08-17, 00:07:00,VALID,919.123,VALID,0,VALID,100,VALID,0.0169808,VALID,19.1782,VALID,238,VALID,0.0231051,
2004-08-17, 00:08:00,VALID,919.12,VALID,0,VALID,100,VALID,0.0169808,VALID,19.1752,VALID,238,VALID,0,
2004-08-17, 00:09:00,VALID,919.118,VALID,0,VALID,100,VALID,-0.0679233,VALID,19.1829,VALID,238,VALID,0,
2004-08-17, 00:10:00,VALID,919.128,VALID,0,VALID,100,VALID,-0.101885,VALID,19.2025,VALID,238,VALID,0,
2004-08-17, 00:11:00,VALID,919.125,VALID,0,VALID,100,VALID,-0.0849042,VALID,19.2156,VALID,238,VALID,0,
2004-08-17, 00:12:00,VALID,919.119,VALID,0,VALID,100,VALID,-0.0679233,VALID,19.1565,VALID,238,VALID,0.193452,
2004-08-17, 00:13:00,VALID,919.099,VALID,0,VALID,100,VALID,-0.0849042,VALID,18.9052,VALID,214,VALID,0.948742,
2004-08-17, 00:14:00,VALID,919.091,VALID,0,VALID,100,VALID,-0.118866,VALID,18.7184,VALID,67,VALID,1.20406,
2004-08-17, 00:15:00,VALID,919.105,VALID,0,VALID,100,VALID,-0.0679233,VALID,18.6532,VALID,75,VALID,0.955983,
2004-08-17, 00:16:00,VALID,919.111,VALID,0,VALID,100,VALID,-0.0849042,VALID,18.6043,VALID,87,VALID,0.837536,
2004-08-17, 00:17:00,VALID,919.107,VALID,0,VALID,100,VALID,-0.0679233,VALID,18.6015,VALID,97,VALID,0.788086,
2004-08-17, 00:18:00,VALID,919.11,VALID,0,VALID,100,VALID,-0.101885,VALID,18.6472,VALID,99,VALID,0.682736,
2004-08-17, 00:19:00,VALID,919.097,VALID,0,VALID,100,VALID,-0.0849042,VALID,18.6601,VALID,99,VALID,0.657848,
2004-08-17, 00:20:00,VALID,919.093,VALID,0,VALID,100,VALID,-0.0679233,VALID,18.6661,VALID,99,VALID,0.515972,
2004-08-17, 00:21:00,VALID,919.094,VALID,0,VALID,100,VALID,-0.101885,VALID,18.6465,VALID,97,VALID,0.479759,
2004-08-17, 00:22:00,VALID,919.091,VALID,0,VALID,100,VALID,-0.101885,VALID,18.6628,VALID,97,VALID,0.460556,
2004-08-17, 00:23:00,VALID,919.063,VALID,0,VALID,100,VALID,-0.0849042,VALID,18.676,VALID,97,VALID,0.568359,
2004-08-17, 00:24:00,VALID,919.019,VALID,0,VALID,100,VALID,-0.101885,VALID,18.7046,VALID,101,VALID,0.984375,
2004-08-17, 00:25:00,VALID,918.989,VALID,0,VALID,100,VALID,-0.101885,VALID,18.7468,VALID,104,VALID,1.04368,
2004-08-17, 00:26:00,VALID,918.976,VALID,0,VALID,100,VALID,-0.0169808,VALID,18.7726,VALID,103,VALID,0.996185,
2004-08-17, 00:27:00,VALID,918.993,VALID,0,VALID,100,VALID,-0.0339617,VALID,18.7659,VALID,96,VALID,0.776344,
2004-08-17, 00:28:00,VALID,919.008,VALID,0,VALID,100,VALID,-0.0509425,VALID,18.7761,VALID,103,VALID,0.557478,
2004-08-17, 00:29:00,VALID,919.003,VALID,0,VALID,100,VALID,-0.0849042,VALID,18.7468,VALID,91,VALID,0.575321,
2004-08-17, 00:30:00,VALID,918.997,VALID,0,VALID,100,VALID,-0.0679233,VALID,18.7016,VALID,76,VALID,0.718192,
2004-08-17, 00:31:00,VALID,918.996,VALID,0,VALID,100,VALID,-0.0849042,VALID,18.6889,VALID,75,VALID,0.774306,
2004-08-17, 00:32:00,VALID,919.013,VALID,0,VALID,100,VALID,-0.0849042,VALID,18.6829,VALID,69,VALID,0.794643,
2004-08-17, 00:33:00,VALID,919.028,VALID,0,VALID,100,VALID,-0.0849042,VALID,18.6633,VALID,76,VALID,0.424964,
2004-08-17, 00:34:00,VALID,919.035,VALID,0,VALID,100,VALID,-0.0509425,VALID,18.6472,VALID,76,VALID,0.323847,
2004-08-17, 00:35:00,VALID,919.03,VALID,0,VALID,100,VALID,-0.0849042,VALID,18.6596,VALID,79,VALID,0.359375,
2004-08-17, 00:36:00,VALID,919.029,VALID,0,VALID,100,VALID,-0.0849042,VALID,18.6794,VALID,129,VALID,0.706771,
2004-08-17, 00:37:00,VALID,919.034,VALID,0,VALID,100,VALID,-0.0509425,VALID,18.7023,VALID,126,VALID,0.359976,
2004-08-17, 00:38:00,VALID,919.021,VALID,0,VALID,100,VALID,-0.0679233,VALID,18.7016,VALID,113,VALID,0.609549,
2004-08-17, 00:39:00,VALID,919.011,VALID,0,VALID,100,VALID,-0.0169808,VALID,18.7202,VALID,87,VALID,0.611328,
2004-08-17, 00:40:00,VALID,918.991,VALID,0,VALID,100,VALID,0,VALID,18.7168,VALID,75,VALID,0.62168,
2004-08-17, 00:41:00,VALID,918.971,VALID,0,VALID,100,VALID,0,VALID,18.7002,VALID,85,VALID,0.78125,
2004-08-17, 00:42:00,VALID,918.958,VALID,0,VALID,100,VALID,0,VALID,18.6776,VALID,93,VALID,0.938953,
2004-08-17, 00:43:00,VALID,918.933,VALID,0,VALID,100,VALID,0.0169808,VALID,18.6582,VALID,95,VALID,0.807478,
2004-08-17, 00:44:00,VALID,918.925,VALID,0,VALID,100,VALID,0.0169808,VALID,18.6423,VALID,97,VALID,0.524771,
2004-08-17, 00:45:00,VALID,918.915,VALID,0,VALID,100,VALID,0.0169808,VALID,18.6294,VALID,105,VALID,0.297408,
2004-08-17, 00:46:00,VALID,918.895,VALID,0,VALID,100,VALID,0.0339617,VALID,18.6033,VALID,121,VALID,0.443677,
2004-08-17, 00:47:00,VALID,918.874,VALID,0,VALID,100,VALID,0,VALID,18.5775,VALID,121,VALID,0.945313,
2004-08-17, 00:48:00,VALID,918.869,VALID,0,VALID,100,VALID,0.0509425,VALID,18.571,VALID,120,VALID,0.921317,
2004-08-17, 00:49:00,VALID,918.862,VALID,0,VALID,100,VALID,0,VALID,18.5362,VALID,108,VALID,0.888021,
2004-08-17, 00:50:00,VALID,918.875,VALID,0,VALID,100,VALID,0.0169808,VALID,18.4906,VALID,97,VALID,0.626453,
2004-08-17, 00:51:00,VALID,918.855,VALID,0,VALID,100,VALID,0,VALID,18.4516,VALID,96,VALID,0.0476017,
2004-08-17, 00:52:00,VALID,918.866,VALID,0,VALID,100,VALID,0,VALID,18.3875,VALID,96,VALID,0.176136,
2004-08-17, 00:53:00,VALID,918.863,VALID,0,VALID,100,VALID,0,VALID,18.3322,VALID,96,VALID,0.050327,
2004-08-17, 00:54:00,VALID,918.855,VALID,0,VALID,100,VALID,0,VALID,18.3004,VALID,96,VALID,0,
2004-08-17, 00:55:00,VALID,918.841,VALID,0,VALID,100,VALID,-0.0169808,VALID,18.2616,VALID,96,VALID,0.281822,
2004-08-17, 00:56:00,VALID,918.841,VALID,0,VALID,100,VALID,0.0169808,VALID,18.2361,VALID,96,VALID,0.478693,
2004-08-17, 00:57:00,VALID,918.851,VALID,0,VALID,100,VALID,0.0169808,VALID,18.2326,VALID,96,VALID,0.338021,
2004-08-17, 00:58:00,VALID,918.847,VALID,0,VALID,100,VALID,0,VALID,18.1971,VALID,96,VALID,0.0644985,
2004-08-17, 00:59:00,VALID,918.844,VALID,0,VALID,100,VALID,0,VALID,18.1422,VALID,96,VALID,0.0711138,
2004-08-17, 01:00:00,VALID,918.836,VALID,0,VALID,100,VALID,0,VALID,18.1268,VALID,95,VALID,0.214286,
2004-08-17, 01:01:00,VALID,918.837,VALID,0,VALID,100,VALID,0.0339617,VALID,18.1134,VALID,76,VALID,0.447656,
2004-08-17, 01:02:00,VALID,918.826,VALID,0,VALID,100,VALID,-0.0169808,VALID,18.0781,VALID,72,VALID,0.235547,
2004-08-17, 01:03:00,VALID,918.806,VALID,0,VALID,100,VALID,0.0169808,VALID,18.0749,VALID,72,VALID,0.341844,
2004-08-17, 01:04:00,VALID,918.783,VALID,0,VALID,100,VALID,0.0169808,VALID,18.0615,VALID,82,VALID,0.564029,
2004-08-17, 01:05:00,VALID,918.786,VALID,0,VALID,100,VALID,0.0169808,VALID,18.0357,VALID,138,VALID,0.710156,
2004-08-17, 01:06:00,VALID,918.79,VALID,0,VALID,100,VALID,0,VALID,18.062,VALID,160,VALID,1.02083,
2004-08-17, 01:07:00,VALID,918.788,VALID,0,VALID,100,VALID,0.0169808,VALID,18.0908,VALID,174,VALID,0.829397,
2004-08-17, 01:08:00,VALID,918.771,VALID,0,VALID,100,VALID,0,VALID,18.1268,VALID,177,VALID,0.974219,
2004-08-17, 01:09:00,VALID,918.763,VALID,0,VALID,100,VALID,-0.0679233,VALID,18.1302,VALID,174,VALID,1.06875,
2004-08-17, 01:10:00,VALID,918.75,VALID,0,VALID,100,VALID,-0.0679233,VALID,18.1724,VALID,174,VALID,1.07485,
2004-08-17, 01:11:00,VALID,918.733,VALID,0,VALID,100,VALID,-0.0339617,VALID,18.2206,VALID,172,VALID,1.10491,
2004-08-17, 01:12:00,VALID,918.719,VALID,0,VALID,100,VALID,-0.0509425,VALID,18.2633,VALID,149,VALID,0.823264,
2004-08-17, 01:13:00,VALID,918.709,VALID,0,VALID,100,VALID,-0.0169808,VALID,18.2727,VALID,143,VALID,0.690358,
2004-08-17, 01:14:00,VALID,918.707,VALID,0,VALID,100,VALID,-0.0339617,VALID,18.2762,VALID,151,VALID,0.543899,
2004-08-17, 01:15:00,VALID,918.707,VALID,0,VALID,100,VALID,-0.0169808,VALID,18.2725,VALID,157,VALID,0.320871,
2004-08-17, 01:16:00,VALID,918.696,VALID,0,VALID,100,VALID,-0.0849042,VALID,18.2729,VALID,157,VALID,0.204578,
2004-08-17, 01:17:00,VALID,918.678,VALID,0,VALID,100,VALID,-0.0339617,VALID,18.2727,VALID,157,VALID,0.0353516,
2004-08-17, 01:18:00,VALID,918.639,VALID,0,VALID,100,VALID,-0.0849042,VALID,18.2762,VALID,157,VALID,0.110937,
2004-08-17, 01:19:00,VALID,918.609,VALID,0,VALID,100,VALID,-0.101885,VALID,18.2379,VALID,157,VALID,0.283411,
2004-08-17, 01:20:00,VALID,918.59,VALID,0,VALID,100,VALID,-0.0849042,VALID,18.2079,VALID,157,VALID,0.125977,
2004-08-17, 01:21:00,VALID,918.555,VALID,0,VALID,100,VALID,-0.0339617,VALID,18.1826,VALID,157,VALID,0.237805,
2004-08-17, 01:22:00,VALID,918.542,VALID,0,VALID,100,VALID,-0.0849042,VALID,18.0952,VALID,150,VALID,0.588663,
2004-08-17, 01:23:00,VALID,918.533,VALID,0,VALID,100,VALID,-0.0339617,VALID,18.076,VALID,141,VALID,0.662388,
2004-08-17, 01:24:00,VALID,918.52,VALID,0,VALID,100,VALID,0.0339617,VALID,18.0908,VALID,141,VALID,0.623242,
2004-08-17, 01:25:00,VALID,918.526,VALID,0,VALID,100,VALID,0,VALID,18.1102,VALID,147,VALID,0.609003,
2004-08-17, 01:26:00,VALID,918.507,VALID,0,VALID,100,VALID,0.0169808,VALID,18.1491,VALID,144,VALID,0.79742,
2004-08-17, 01:27:00,VALID,918.498,VALID,0,VALID,100,VALID,0.0509425,VALID,18.178,VALID,135,VALID,0.631771,
2004-08-17, 01:28:00,VALID,918.478,VALID,0,VALID,100,VALID,0.0339617,VALID,18.1971,VALID,133,VALID,0.462391,
2004-08-17, 01:29:00,VALID,918.486,VALID,0,VALID,100,VALID,0.0339617,VALID,18.204,VALID,133,VALID,0.248884,
2004-08-17, 01:30:00,VALID,918.474,VALID,0,VALID,100,VALID,0.0679233,VALID,18.2132,VALID,133,VALID,0.238735,
2004-08-17, 01:31:00,VALID,918.47,VALID,0,VALID,100,VALID,0.0849042,VALID,18.2266,VALID,128,VALID,0.197917,
2004-08-17, 01:32:00,VALID,918.459,VALID,0,VALID,100,VALID,0.0339617,VALID,18.2361,VALID,107,VALID,0.681055,
2004-08-17, 01:33:00,VALID,918.45,VALID,0,VALID,100,VALID,0.0849042,VALID,18.2483,VALID,109,VALID,0.43064,
2004-08-17, 01:34:00,VALID,918.436,VALID,0,VALID,100,VALID,0.0339617,VALID,18.2522,VALID,102,VALID,0.537287,
2004-08-17, 01:35:00,VALID,918.438,VALID,0,VALID,100,VALID,0.0509425,VALID,18.175,VALID,65,VALID,0.510831,
2004-08-17, 01:36:00,VALID,918.452,VALID,0,VALID,100,VALID,0.0509425,VALID,18.0876,VALID,65,VALID,0.362351,
2004-08-17, 01:37:01,VALID,918.452,VALID,0,VALID,100,VALID,0.0169808,VALID,18.0714,VALID,65,VALID,0.339844,
2004-08-17, 01:38:00,VALID,918.464,VALID,0,VALID,100,VALID,0.0509425,VALID,18.0809,VALID,65,VALID,0.164453,
2004-08-17, 01:39:00,VALID,918.466,VALID,0,VALID,100,VALID,-0.0339617,VALID,18.0627,VALID,65,VALID,0.286204,
2004-08-17, 01:40:01,VALID,918.458,VALID,0,VALID,100,VALID,0,VALID,18.0924,VALID,65,VALID,0.0786577,
2004-08-17, 01:41:00,VALID,918.447,VALID,0,VALID,100,VALID,-0.0509425,VALID,18.0504,VALID,65,VALID,0,
2004-08-17, 01:42:01,VALID,918.446,VALID,0,VALID,100,VALID,-0.0849042,VALID,18.0115,VALID,65,VALID,0.00109012,
2004-08-17, 01:43:00,VALID,918.429,VALID,0,VALID,100,VALID,-0.0339617,VALID,18.0145,VALID,65,VALID,0.00181686,
2004-08-17, 01:44:01,VALID,918.415,VALID,0,VALID,100,VALID,-0.0169808,VALID,18.0278,VALID,65,VALID,0.133013,
2004-08-17, 01:45:00,VALID,918.412,VALID,0,VALID,100,VALID,-0.0509425,VALID,18.0143,VALID,65,VALID,0.392401,
2004-08-17, 01:46:00,VALID,918.399,VALID,0,VALID,100,VALID,-0.0509425,VALID,17.9981,VALID,65,VALID,0.636541,
2004-08-17, 01:47:01,VALID,918.377,VALID,0,VALID,100,VALID,-0.101885,VALID,18.0315,VALID,65,VALID,0.723722,
2004-08-17, 01:48:00,VALID,918.363,VALID,0,VALID,100,VALID,-0.0339617,VALID,18.0664,VALID,71,VALID,0.726362,
2004-08-17, 01:49:01,VALID,918.347,VALID,0,VALID,100,VALID,-0.0339617,VALID,18.0691,VALID,82,VALID,0.702951,
2004-08-17, 01:50:00,VALID,918.33,VALID,0,VALID,100,VALID,-0.0339617,VALID,18.0788,VALID,85,VALID,0.787609,
2004-08-17, 01:51:01,VALID,918.318,VALID,0,VALID,100,VALID,-0.0339617,VALID,18.0883,VALID,80,VALID,0.399182,
2004-08-17, 01:52:00,VALID,918.298,VALID,0,VALID,100,VALID,-0.0679233,VALID,18.1085,VALID,80,VALID,0.264172,
2004-08-17, 01:53:00,VALID,918.286,VALID,0,VALID,100,VALID,-0.0849042,VALID,18.1187,VALID,82,VALID,0.368403,
2004-08-17, 01:54:00,VALID,918.29,VALID,0,VALID,100,VALID,0.0169808,VALID,18.1173,VALID,83,VALID,0.126389,
2004-08-17, 01:55:00,VALID,918.294,VALID,0,VALID,100,VALID,0.0509425,VALID,18.1136,VALID,83,VALID,0.0078125,
2004-08-17, 01:56:01,VALID,918.316,VALID,0,VALID,100,VALID,0.0509425,VALID,18.1166,VALID,83,VALID,0.000169837,
2004-08-17, 01:57:00,VALID,918.324,VALID,0,VALID,100,VALID,0.0169808,VALID,18.1362,VALID,83,VALID,0.000801282,
2004-08-17, 01:58:00,VALID,918.311,VALID,0,VALID,100,VALID,0,VALID,18.1365,VALID,83,VALID,0.191939,
2004-08-17, 01:59:01,VALID,918.31,VALID,0,VALID,100,VALID,0.0169808,VALID,18.1431,VALID,84,VALID,0.501334,
2004-08-17, 02:00:00,VALID,918.293,VALID,0,VALID,100,VALID,0.0679233,VALID,18.133,VALID,102,VALID,0.359933,
2004-08-17, 02:01:00,VALID,918.287,VALID,0,VALID,100,VALID,0.0169808,VALID,18.1162,VALID,102,VALID,0.0163517,
2004-08-17, 02:02:00,VALID,918.307,VALID,0,VALID,100,VALID,0.0679233,VALID,18.1037,VALID,102,VALID,0.149609,
2004-08-17, 02:03:00,VALID,918.325,VALID,0,VALID,100,VALID,0.0339617,VALID,18.0973,VALID,102,VALID,0.165039,
2004-08-17, 02:04:00,VALID,918.339,VALID,0,VALID,100,VALID,0.0849042,VALID,18.0809,VALID,101,VALID,0.408668,
2004-08-17, 02:05:00,VALID,918.331,VALID,0,VALID,100,VALID,0.0509425,VALID,18.0648,VALID,92,VALID,0.386052,
2004-08-17, 02:06:01,VALID,918.316,VALID,0,VALID,100,VALID,0.0509425,VALID,18.0489,VALID,92,VALID,0.414395,
2004-08-17, 02:07:00,VALID,918.31,VALID,0,VALID,100,VALID,0.0169808,VALID,18.0327,VALID,91,VALID,0.611523,
2004-08-17, 02:08:00,VALID,918.294,VALID,0,VALID,100,VALID,0.0679233,VALID,18.0164,VALID,77,VALID,0.721946,
2004-08-17, 02:09:00,VALID,918.308,VALID,0,VALID,100,VALID,0.0339617,VALID,17.9974,VALID,77,VALID,0.886814,
2004-08-17, 02:10:00,VALID,918.335,VALID,0,VALID,100,VALID,0.0849042,VALID,17.9638,VALID,77,VALID,0.644271,
2004-08-17, 02:11:01,VALID,918.365,VALID,0,VALID,100,VALID,0.0679233,VALID,17.9778,VALID,87,VALID,0.757068,
2004-08-17, 02:12:00,VALID,918.378,VALID,0,VALID,100,VALID,0.0679233,VALID,17.9712,VALID,80,VALID,0.411014,
2004-08-17, 02:13:00,VALID,918.386,VALID,0,VALID,100,VALID,0.118866,VALID,17.9652,VALID,68,VALID,0.746003,
2004-08-17, 02:14:00,VALID,918.385,VALID,0,VALID,100,VALID,0.0679233,VALID,17.9613,VALID,74,VALID,0.452035,
2004-08-17, 02:15:00,VALID,918.392,VALID,0,VALID,100,VALID,0.0849042,VALID,17.9815,VALID,74,VALID,0.355556,
2004-08-17, 02:16:00,VALID,918.374,VALID,0,VALID,100,VALID,0.0509425,VALID,17.9781,VALID,99,VALID,0.720312,
2004-08-17, 02:17:00,VALID,918.367,VALID,0,VALID,100,VALID,0.0509425,VALID,17.9845,VALID,104,VALID,0.761541,
2004-08-17, 02:18:00,VALID,918.362,VALID,0,VALID,100,VALID,0.0509425,VALID,17.9977,VALID,104,VALID,0.633358,
2004-08-17, 02:19:00,VALID,918.369,VALID,0,VALID,100,VALID,0.101885,VALID,18.0007,VALID,108,VALID,0.621094,
2004-08-17, 02:20:00,VALID,918.371,VALID,0,VALID,100,VALID,0.0679233,VALID,18.0069,VALID,108,VALID,0.640811,
2004-08-17, 02:21:00,VALID,918.372,VALID,0,VALID,100,VALID,0.0509425,VALID,18.0002,VALID,108,VALID,0.304874,
2004-08-17, 02:22:01,VALID,918.374,VALID,0,VALID,100,VALID,0.0679233,VALID,18.0067,VALID,108,VALID,0.590732,
2004-08-17, 02:23:01,VALID,918.371,VALID,0,VALID,100,VALID,0.0679233,VALID,18.0263,VALID,84,VALID,0.37862,
2004-08-17, 02:24:00,VALID,918.341,VALID,0,VALID,100,VALID,-0.0169808,VALID,18.0371,VALID,67,VALID,0.303354,
2004-08-17, 02:25:01,VALID,918.332,VALID,0,VALID,100,VALID,-0.0169808,VALID,18.0375,VALID,71,VALID,0.511889,
2004-08-17, 02:26:00,VALID,918.32,VALID,0,VALID,100,VALID,-0.0339617,VALID,18.0246,VALID,96,VALID,0.382626,
2004-08-17, 02:27:01,VALID,918.322,VALID,0,VALID,100,VALID,-0.0169808,VALID,18.0182,VALID,107,VALID,0.334517,
2004-08-17, 02:28:00,VALID,918.315,VALID,0,VALID,100,VALID,0,VALID,18.0214,VALID,107,VALID,0.185138,
2004-08-17, 02:29:00,VALID,918.314,VALID,0,VALID,100,VALID,-0.0339617,VALID,18.0145,VALID,107,VALID,0.209375,
2004-08-17, 02:30:00,VALID,918.318,VALID,0,VALID,100,VALID,-0.0509425,VALID,18.0184,VALID,79,VALID,0.198219,
2004-08-17, 02:31:01,VALID,918.31,VALID,0,VALID,100,VALID,-0.0339617,VALID,18.0117,VALID,77,VALID,0.248757,
2004-08-17, 02:32:00,VALID,918.291,VALID,0,VALID,100,VALID,-0.0679233,VALID,18.0117,VALID,96,VALID,0.602764,
2004-08-17, 02:33:00,VALID,918.276,VALID,0,VALID,100,VALID,-0.0509425,VALID,17.9983,VALID,97,VALID,0.752404,
2004-08-17, 02:34:01,VALID,918.265,VALID,0,VALID,100,VALID,-0.0339617,VALID,18.002,VALID,92,VALID,0.722561,
2004-08-17, 02:35:00,VALID,918.26,VALID,0,VALID,100,VALID,-0.0339617,VALID,17.9854,VALID,84,VALID,0.537326,
2004-08-17, 02:36:00,VALID,918.255,VALID,0,VALID,100,VALID,-0.0509425,VALID,17.9797,VALID,88,VALID,0.466518,
2004-08-17, 02:37:01,VALID,918.265,VALID,0,VALID,100,VALID,-0.0169808,VALID,17.9794,VALID,99,VALID,0.345526,
2004-08-17, 02:38:00,VALID,918.28,VALID,0,VALID,100,VALID,-0.0679233,VALID,17.9827,VALID,106,VALID,0.561632,
2004-08-17, 02:39:01,VALID,918.273,VALID,0,VALID,100,VALID,0.0509425,VALID,17.9818,VALID,122,VALID,0.389291,
2004-08-17, 02:40:00,VALID,918.279,VALID,0,VALID,100,VALID,0.0679233,VALID,17.9813,VALID,111,VALID,0.621003,
2004-08-17, 02:41:00,VALID,918.271,VALID,0,VALID,100,VALID,0.0509425,VALID,17.9811,VALID,99,VALID,0.542878,
2004-08-17, 02:42:01,VALID,918.253,VALID,0,VALID,100,VALID,0.0509425,VALID,17.9652,VALID,101,VALID,0.511161,
2004-08-17, 02:43:00,VALID,918.246,VALID,0,VALID,100,VALID,0.0339617,VALID,17.9714,VALID,97,VALID,0.555069,
2004-08-17, 02:44:01,VALID,918.25,VALID,0,VALID,100,VALID,0.0509425,VALID,17.9721,VALID,111,VALID,0.457386,
2004-08-17, 02:45:00,VALID,918.236,VALID,0,VALID,100,VALID,0.0679233,VALID,17.9654,VALID,123,VALID,0.271019,
2004-08-17, 02:46:00,VALID,918.234,VALID,0,VALID,100,VALID,0.0509425,VALID,17.9488,VALID,93,VALID,0.358613,
2004-08-17, 02:47:01,VALID,918.231,VALID,0,VALID,100,VALID,0.0509425,VALID,17.9684,VALID,92,VALID,0.481468,
2004-08-17, 02:48:00,VALID,918.224,VALID,0,VALID,100,VALID,0.0679233,VALID,17.9813,VALID,83,VALID,0.304688,
2004-08-17, 02:49:00,VALID,918.211,VALID,0,VALID,100,VALID,0.101885,VALID,17.9813,VALID,95,VALID,0.552951,
2004-08-17, 02:50:00,VALID,918.194,VALID,0,VALID,100,VALID,0.0509425,VALID,17.9875,VALID,100,VALID,0.679129,
2004-08-17, 02:51:00,VALID,918.187,VALID,0,VALID,100,VALID,0.0509425,VALID,17.9744,VALID,104,VALID,0.512251,
2004-08-17, 02:52:00,VALID,918.189,VALID,0,VALID,100,VALID,0.0509425,VALID,17.9617,VALID,107,VALID,0.480078,
2004-08-17, 02:53:00,VALID,918.173,VALID,0,VALID,100,VALID,0.0509425,VALID,17.9523,VALID,105,VALID,0.380149,
2004-08-17, 02:54:00,VALID,918.161,VALID,0,VALID,100,VALID,-0.0169808,VALID,17.9467,VALID,102,VALID,0.388765,
2004-08-17, 02:55:01,VALID,918.161,VALID,0,VALID,100,VALID,-0.0169808,VALID,17.9405,VALID,93,VALID,0.431463,
2004-08-17, 02:56:00,VALID,918.152,VALID,0,VALID,100,VALID,0,VALID,17.9241,VALID,76,VALID,0.412064,
2004-08-17, 02:57:00,VALID,918.139,VALID,0,VALID,100,VALID,0,VALID,17.9082,VALID,71,VALID,0.485119,
2004-08-17, 02:58:01,VALID,918.123,VALID,0,VALID,100,VALID,-0.0169808,VALID,17.8725,VALID,58,VALID,0.702381,
2004-08-17, 02:59:01,VALID,918.116,VALID,0,VALID,100,VALID,-0.0169808,VALID,17.8305,VALID,57,VALID,0.446075,
2004-08-17, 03:00:00,VALID,918.104,VALID,0,VALID,100,VALID,-0.0509425,VALID,17.8213,VALID,81,VALID,0.545967,
2004-08-17, 03:01:00,VALID,918.095,VALID,0,VALID,100,VALID,-0.0169808,VALID,17.8047,VALID,132,VALID,1.12277,
2004-08-17, 03:02:01,VALID,918.099,VALID,0,VALID,100,VALID,-0.0509425,VALID,17.8275,VALID,145,VALID,0.653963,
2004-08-17, 03:03:00,VALID,918.081,VALID,0,VALID,100,VALID,0,VALID,17.8367,VALID,123,VALID,0.920603,
2004-08-17, 03:04:00,VALID,918.081,VALID,0,VALID,100,VALID,-0.0169808,VALID,17.8596,VALID,112,VALID,0.844993,
2004-08-17, 03:05:00,VALID,918.073,VALID,0,VALID,100,VALID,-0.0339617,VALID,17.8667,VALID,116,VALID,0.687863,
2004-08-17, 03:06:00,VALID,918.061,VALID,0,VALID,100,VALID,-0.0339617,VALID,17.8729,VALID,118,VALID,0.465843,
2004-08-17, 03:07:00,VALID,918.073,VALID,0,VALID,100,VALID,0,VALID,17.8598,VALID,126,VALID,0.210379,
2004-08-17, 03:08:01,VALID,918.081,VALID,0,VALID,100,VALID,-0.0169808,VALID,17.8367,VALID,121,VALID,0.401708,
2004-08-17, 03:09:00,VALID,918.086,VALID,0,VALID,100,VALID,-0.0509425,VALID,17.8305,VALID,81,VALID,0.447266,
2004-08-17, 03:10:01,VALID,918.09,VALID,0,VALID,100,VALID,-0.0509425,VALID,17.8181,VALID,61,VALID,0.419207,
2004-08-17, 03:11:00,VALID,918.084,VALID,0,VALID,100,VALID,-0.0339617,VALID,17.7692,VALID,52,VALID,0.380766,
2004-08-17, 03:12:01,VALID,918.072,VALID,0,VALID,100,VALID,-0.0339617,VALID,17.7438,VALID,70,VALID,0.376758,
2004-08-17, 03:13:00,VALID,918.072,VALID,0,VALID,100,VALID,-0.0509425,VALID,17.7406,VALID,126,VALID,0.730208,
2004-08-17, 03:14:01,VALID,918.068,VALID,0,VALID,100,VALID,-0.0339617,VALID,17.7371,VALID,124,VALID,1.04954,
2004-08-17, 03:15:01,VALID,918.08,VALID,0,VALID,100,VALID,0,VALID,17.7436,VALID,116,VALID,0.934524,
2004-08-17, 03:16:01,VALID,918.076,VALID,0,VALID,100,VALID,-0.0849042,VALID,17.744,VALID,112,VALID,0.936047,
2004-08-17, 03:17:01,VALID,918.072,VALID,0,VALID,100,VALID,-0.0509425,VALID,17.7604,VALID,119,VALID,0.860795,
2004-08-17, 03:18:01,VALID,918.071,VALID,0,VALID,100,VALID,-0.0169808,VALID,17.7535,VALID,109,VALID,0.806641,
2004-08-17, 03:19:00,VALID,918.063,VALID,0,VALID,100,VALID,-0.0339617,VALID,17.754,VALID,115,VALID,0.815739,
2004-08-17, 03:20:01,VALID,918.048,VALID,0,VALID,100,VALID,-0.0169808,VALID,17.7376,VALID,110,VALID,0.680575,
2004-08-17, 03:21:00,VALID,918.049,VALID,0,VALID,100,VALID,-0.0169808,VALID,17.7374,VALID,120,VALID,0.956055,
2004-08-17, 03:22:01,VALID,918.047,VALID,0,VALID,100,VALID,-0.0679233,VALID,17.7311,VALID,106,VALID,1.12027,
2004-08-17, 03:23:00,VALID,918.05,VALID,0,VALID,100,VALID,-0.0169808,VALID,17.7436,VALID,107,VALID,0.975,
2004-08-17, 03:24:01,VALID,918.03,VALID,0,VALID,100,VALID,0.0679233,VALID,17.7459,VALID,106,VALID,0.84043,
2004-08-17, 03:25:01,VALID,918.006,VALID,0,VALID,100,VALID,0.0509425,VALID,17.7457,VALID,81,VALID,0.583394,
2004-08-17, 03:26:01,VALID,918.002,VALID,0,VALID,100,VALID,0.0169808,VALID,17.7395,VALID,70,VALID,0.311328,
2004-08-17, 03:27:00,VALID,918,VALID,0,VALID,100,VALID,0.0849042,VALID,17.7362,VALID,72,VALID,0.0710069,
2004-08-17, 03:28:01,VALID,918.004,VALID,0,VALID,100,VALID,0.0509425,VALID,17.7134,VALID,132,VALID,0.797637,
2004-08-17, 03:29:01,VALID,918.004,VALID,0,VALID,100,VALID,0.0339617,VALID,17.7268,VALID,136,VALID,0.826308,
2004-08-17, 03:30:00,VALID,918.003,VALID,0,VALID,100,VALID,0.0339617,VALID,17.7268,VALID,132,VALID,0.461496,
2004-08-17, 03:31:01,VALID,917.979,VALID,0,VALID,100,VALID,0.0509425,VALID,17.7169,VALID,73,VALID,0.576637,
2004-08-17, 03:32:01,VALID,917.938,VALID,0,VALID,100,VALID,0.0169808,VALID,17.6975,VALID,41,VALID,0.865691,
2004-08-17, 03:33:01,VALID,917.921,VALID,0,VALID,100,VALID,-0.0339617,VALID,17.6668,VALID,47,VALID,0.849888,
2004-08-17, 03:34:00,VALID,917.904,VALID,0,VALID,100,VALID,-0.0509425,VALID,17.6184,VALID,46,VALID,0.804883,
2004-08-17, 03:35:01,VALID,917.915,VALID,0,VALID,100,VALID,-0.0679233,VALID,17.5732,VALID,46,VALID,0.638081,
2004-08-17, 03:36:01,VALID,917.922,VALID,0,VALID,100,VALID,-0.0679233,VALID,17.5308,VALID,46,VALID,0.454942,
2004-08-17, 03:37:01,VALID,917.919,VALID,0,VALID,100,VALID,-0.0849042,VALID,17.4985,VALID,46,VALID,0.273256,
2004-08-17, 03:38:01,VALID,917.908,VALID,0,VALID,100,VALID,-0.0339617,VALID,17.4727,VALID,46,VALID,0.00195313,